Weather History for Denver, CO

Change the Weather History Date:

Thursday, June 20, 2013

  Actual Average Record
Temperature  
Mean Temperature 74 °F 69 °F  
Max Temperature 91 °F 84 °F 97 °F (1968)
Min Temperature 56 °F 54 °F 39 °F (1973)
Degree Days  
Heating Degree Days 0 1  
Month to date heating degree days 29 53  
Since 1 June heating degree days 29 53  
Since 1 July heating degree days 6084 6049  
Cooling Degree Days 9 5  
Month to date cooling degree days 118 69  
Year to date cooling degree days 160 91  
Since 1 June cooling degree days 118 69  
Growing Degree Days 24 (Base 50)    
Moisture  
Dew Point 33 °F    
Average Humidity 47    
Maximum Humidity 84    
Minimum Humidity 9    
Precipitation  
Precipitation 0.00 in 0.07 in 1.05 in (2011)
Month to date precipitation 0.13 1.38  
Year to date precipitation 5.37 6.91  
Snow  
Snow 0.00 in - - ()
Month to date snowfall 0  
Since 1 June snowfall 0  
Since 1 July snowfall 78.4  
Snow Depth 0.00 in    
Sea Level Pressure  
Sea Level Pressure 29.65 in    
Wind  
Wind Speed 11 mph (ENE)    
Max Wind Speed 23 mph    
Max Gust Speed 28 mph    
Visibility 8 miles    
Events      
T = Trace of Precipitation, MM = Missing Value Source: NWS Daily Summary

Daily Weather History Graph

Daily Weather History Graph

Search for Another Location

Airport:

Trip Planner

Search our weather history database for the weather conditions in past years. The results will help you decide how hot, cold, wet, or windy it might be!

Date:

Astronomy

Jun. 20, 2013 Rise Set
Actual Time 5:30 AM MDT 8:30 PM MDT
Civil Twilight 4:57 AM MDT 9:03 PM MDT
Nautical Twilight 4:15 AM MDT 9:44 PM MDT
Astronomical Twilight 3:27 AM MDT 10:33 PM MDT
Moon 5:35 PM MDT (6/20) 2:58 AM MDT (6/20)
Length of Visible Light 16h 05m
Length of Day
14h 59m
Waxing Gibbous, 89% of the Moon is Illuminated
Jun 20
Waxing Gibbous
Jun 23
Full
Jun 29
Last Quarter
Jul 8
New
Jul 15
First Quarter

Hourly Weather History & Observations

Time (MDT) Temp. Dew Point Humidity Pressure Visibility Wind Dir Wind Speed Gust Speed Precip Events Conditions
12:53 AM 70.0 °F 34.0 °F 27% 29.52 in 5.0 mi SSW 11.5 mph - N/A   Haze
1:53 AM 64.4 °F 21.2 °F 19% 29.54 in 2.5 mi South 12.7 mph - N/A   Smoke
2:15 AM 64.4 °F 17.6 °F 16% 29.82 in 3.0 mi South 8.1 mph - N/A   Haze
2:53 AM 55.4 °F 24.8 °F 31% 29.56 in 3.0 mi South 9.2 mph - N/A   Smoke
3:53 AM 64.4 °F 19.4 °F 18% 29.55 in 4.0 mi West 13.8 mph 17.3 mph N/A   Smoke
4:53 AM 60.1 °F 41.0 °F 49% 29.60 in 7.0 mi NW 8.1 mph - N/A   Partly Cloudy
5:53 AM 60.1 °F 55.0 °F 83% 29.64 in 7.0 mi Calm Calm - N/A   Partly Cloudy
6:53 AM 62.1 °F 54.0 °F 75% 29.67 in 7.0 mi SE 3.5 mph - N/A   Partly Cloudy
7:53 AM 69.1 °F 39.9 °F 35% 29.70 in 10.0 mi NNE 5.8 mph - N/A   Partly Cloudy
8:53 AM 73.0 °F 26.1 °F 17% 29.72 in 10.0 mi NE 12.7 mph - N/A   Partly Cloudy
9:53 AM 77.0 °F 24.1 °F 14% 29.72 in 10.0 mi NNE 11.5 mph 17.3 mph N/A   Partly Cloudy
10:53 AM 80.1 °F 24.1 °F 13% 29.73 in 10.0 mi NE 12.7 mph 16.1 mph N/A   Partly Cloudy
11:53 AM 81.0 °F 24.1 °F 12% 29.73 in 10.0 mi East 9.2 mph 18.4 mph N/A   Partly Cloudy
12:53 PM 84.9 °F 21.9 °F 10% 29.68 in 10.0 mi ENE 8.1 mph - N/A   Partly Cloudy
1:53 PM 87.1 °F 24.1 °F 10% 29.67 in 10.0 mi ESE 11.5 mph 19.6 mph N/A   Scattered Clouds
2:53 PM 87.1 °F 23.0 °F 10% 29.68 in 10.0 mi Variable 6.9 mph 17.3 mph N/A   Scattered Clouds
3:53 PM 88.0 °F 25.0 °F 10% 29.63 in 10.0 mi ESE 8.1 mph 20.7 mph N/A   Scattered Clouds
4:53 PM 90.0 °F 26.1 °F 10% 29.62 in 10.0 mi NE 16.1 mph - N/A   Scattered Clouds
5:53 PM 90.0 °F 28.9 °F 11% 29.61 in 10.0 mi NE 10.4 mph - N/A   Scattered Clouds
6:53 PM 84.9 °F 34.0 °F 16% 29.61 in 10.0 mi NNE 21.9 mph - N/A   Scattered Clouds
7:53 PM 79.0 °F 34.0 °F 20% 29.62 in 10.0 mi NNE 15.0 mph - N/A   Scattered Clouds
8:53 PM 77.0 °F 39.0 °F 25% 29.63 in 10.0 mi NNE 18.4 mph - N/A   Scattered Clouds
9:53 PM 73.9 °F 46.0 °F 37% 29.64 in 10.0 mi NNE 18.4 mph 26.5 mph N/A   Scattered Clouds
10:53 PM 71.1 °F 51.1 °F 49% 29.65 in 10.0 mi NNE 13.8 mph - N/A   Scattered Clouds
11:53 PM 68.0 °F 54.0 °F 61% 29.67 in 10.0 mi NNE 9.2 mph - N/A   Partly Cloudy